Location: Guilderland
(42.7045°N, 73.9115°W)
Time: 17:28:53
(UTC+00:00)

USA 32 - Pass Details

Date: 24 January 2020
Orbit: 777 x 783 km, 85.0° (Epoch: 29 January)

Event Time Altitude Azimuth Distance (km) Brightness Sun altitude
Rises 22:51:43 0° 184° (S) 3,244 7.5 -10.0°
Reaches altitude 10° 22:54:04 10° 185° (S) 2,320 6.8 -10.4°
Maximum altitude 22:59:16 86° 272° (W) 785 4.1 -11.4°
Drops below altitude 10° 23:04:32 10° 4° (N) 2,337 6.3 -12.3°
Sets 23:06:54 0° 5° (N) 3,270 7.1 -12.7°
